星链-31457 (STARLINK-31457 )

导读

STARLINK-31457是美国于北京时间2024年4月5日8点发射的星链卫星,隶属于SpaceX星链互联网卫星星座项目。星链计划旨在构建全球卫星互联网,为偏远、缺乏基础设施的区域提供低成本高速互联网接入,该卫星入轨后将补充星座容量,提升星链服务覆盖与稳定性。

Basic Information
目录编号:
59414
目录名称:
STARLINK-31457
国际标识:
2024-064S
轨道中心:
EARTH
卫星名称:
星链-31457
卫星全名:
星链-31457 (STARLINK-31457 )
卫星状态:
在轨 (已飞行882 天)
发射日期:
2024-04-05 UTC
国别 :
美国 (US)
星等 :
--
Orbit Information
数据来源 国际轨道数据 AOE轨道数据
星历时间 2026-09-04T09:22:29+0800
11小时前
查看轨道信息
2026-09-01T22:00:00+0800
2天前
查看轨道信息
半长轴 6861.183km 6861.221km
偏心率 0.0001456 0.0001746
轨道倾角 43.002° 43.001°
近地点辐角 268.299° 256.668°
升交点赤经 121.995° 135.969°
平近点角 91.769° 162.516°
近地点 482.047km 481.886km
远地点 484.045km 484.282km
周期 94.267分钟 94.267分钟
每日圈数 15.275813 15.275684
Detailed Information
固有亮度:
5
最大亮度:
0.3
卫星平台:
Starlink v2.0 mini
覆盖范围:
全球
运营商:
太空探索技术公司
运营商所在国:
美国
制造商(研发单位):
太空探索技术公司
制造商所在国:
美国
使用方式:
暂无
Satellite Introduction
星链(Starlink)计划是由太空探索技术公司(SpaceX)提出的一个巨型低轨卫星互联网星座项目,计划在2019年至2024年间在太空搭建由约1.2万颗卫星组成的“星链”网络,其中1584颗将部署在地球上空550千米处的近地轨道,并从2020年开始工作。该卫星仍在工作。
2D Orbit Map
3D Orbit Map
Orbit Altitude Analysis Chart
Orbit Inclination Analysis Chart
Orbit Comprehensive Analysis Chart
View Comprehensive Chart